Regional Weather Roundup
Issued by NWS

Home | Current Version | Previous Version | Text Only | Print | Product List | Glossary Off
Versions: 1 2 3 4 5 6 7 8 9 10 11 12 13 14 15 16 17 18 19 20 21 22 23 24 25 26 27 28 29 30 31 32 33 34 35 36 37 38 39 40 41 42 43 44 45 46 47 48 49 50

437
ASUS45 KCYS 302110
RWRWY

WYOMING REGIONAL WEATHER ROUNDUP
NATIONAL WEATHER SERVICE CHEYENNE WY
300 PM MDT SUN APR 30 2017

NOTE:  "FAIR" INDICATES FEW OR NO CLOUDS BELOW 12,000 FEET
WITH NO SIGNIFICANT WEATHER AND/OR OBSTRUCTIONS TO VISIBILITY.

WYZ001-302200-
YELLOWSTONE NATIONAL PARK

CITY           SKY/WX    TMP DP  RH WIND       PRES   REMARKS
LK YELLOWSTONE   N/A     38  24  57 VRB5      30.08R WCI  34
W YELLOWSTONE  NOT AVBL

$$
WYZ002>013-054>058-071-098>099-302200-
NORTHERN WYOMING

CITY           SKY/WX    TMP DP  RH WIND       PRES   REMARKS
JACKSON        PTSUNNY   48  30  49 SW16      30.06F
CODY           FAIR      58  28  32 W13G21    29.95F
GREYBULL       FAIR      61  24  24 MISG      29.92F
WORLAND        FAIR      61  30  31 N5        29.92F
SHERIDAN       CLOUDY    57  31  37 SW9       29.93S
BUFFALO        FAIR      52  20  28 W5        29.96F
GILLETTE       FAIR      54  32  43 SW7       29.93F
HULETT         FAIR      57  19  23 W6        29.92F
NEWCASTLE      FAIR      55  18  22 NW12G23   29.91F

$$
WYZ014>020-022>026-101>103-302200-
CENTRAL WYOMING

CITY           SKY/WX    TMP DP  RH WIND       PRES   REMARKS
BIG PINEY      FAIR      51  25  36 NW21G32   30.07S
PINEDALE       FAIR      50  23  34 NW18G31   30.07S
DUBOIS         CLOUDY    45  21  39 NW18G30   30.01S
LANDER         FAIR      55  28  35 S10       29.95F
RIVERTON       FAIR      55  25  31 VRB3      29.96F
CASPER         FAIR      56  25  30 NW12G20   29.96F
DOUGLAS        FAIR      59  21  23 N22       29.93F

$$
WYZ021-027>030-104>119-302200-
SOUTHERN WYOMING

CITY           SKY/WX    TMP DP  RH WIND       PRES   REMARKS
EVANSTON       CLOUDY    47  27  45 W16       30.13R
KEMMERER         N/A     46  28  49 W22G32    30.09F
FORT BRIDGER   CLOUDY    49  26  40 NW18G26   30.13S
ROCK SPRINGS   PTSUNNY   54  23  30 W20G26    30.04F
DIXON            N/A     52  19  27 W14G21    30.06F
RAWLINS        FAIR      51  26  37 NW15G24   30.02F
SARATOGA       CLOUDY    46  19  34 W9G28     30.04S
LARAMIE        FAIR      50  12  21 NW30G39   29.95F
CHEYENNE       FAIR      54  17  23 N31G43    29.88F
TORRINGTON     FAIR      59  15  18 N16G32    29.86F
PINE BLUFFS    FAIR      54  23  30 N24G35    29.87F

$$




USA.gov is the U.S. government's official web portal to all federal, state and local government web resources and services.